WetterOnline ( http://www.wetteronline.de )

Wetter aktuell Würzburg

Aktuelles Wetter: Würzburg (272m)

6-stündlich | Neueste Meldungen
Ortszeit Temperatur Wetter
Fr, 25.05. 8:00 14.2° C bedeckt
Fr, 25.05. 2:00 15.1° C wolkig
Do, 24.05. 20:00 18.1° C wolkenlos
Do, 24.05. 14:00 19.3° C bewölkt
Do, 24.05. 8:00 14.6° C Regen
Do, 24.05. 2:00 15.1° C fast wolkenlos
Mi, 23.05. 20:00 17.4° C leicht bewölkt
Mi, 23.05. 14:00 23.5° C leicht bewölkt
Ortszeit Temperatur Wetter
Fr, 25.05. 8:30 14.6° C bedeckt
Fr, 25.05. 8:20 14.6° C bedeckt
Fr, 25.05. 8:10 14.5° C bedeckt
Fr, 25.05. 8:00 14.2° C bedeckt
Fr, 25.05. 7:50 14.2° C bedeckt
Fr, 25.05. 7:40 14.1° C bedeckt
Fr, 25.05. 7:30 13.9° C Nebel
Fr, 25.05. 7:00 13.6° C Nebel
Fr, 25.05. 6:30 13.5° C Nebel
Fr, 25.05. 6:00 13.3° C Nebel
Fr, 25.05. 5:30 13.3° C fast wolkenlos
Ortszeit Relative Feuchte Sichtweite
Fr, 25.05. 8:00 99% 4.1 km
Fr, 25.05. 2:00 98% 3.1 km
Do, 24.05. 20:00 81% 23 km
Do, 24.05. 14:00 75% 35 km
Do, 24.05. 8:00 99% 2.5 km
Do, 24.05. 2:00 87% 15 km
Mi, 23.05. 20:00 78% 30 km
Mi, 23.05. 14:00 51% 18 km
Ortszeit Relative Feuchte Sichtweite
Fr, 25.05. 8:30 97% 3.3 km
Fr, 25.05. 8:20 97% -
Fr, 25.05. 8:10 98% -
Fr, 25.05. 8:00 99% 4.1 km
Fr, 25.05. 7:50 99% -
Fr, 25.05. 7:40 99% -
Fr, 25.05. 7:30 100% 0.2 km
Fr, 25.05. 7:00 100% 0.3 km
Fr, 25.05. 6:30 100% 0.3 km
Fr, 25.05. 6:00 100% 0.5 km
Fr, 25.05. 5:30 99% 4.4 km
Ortszeit Niederschlagsmenge Niederschlagsart
Fr, 25.05. 8:00 0.0 l/m2 in 12 Std. -
Fr, 25.05. 2:00 0.0 l/m2 in 6 Std. -
Do, 24.05. 20:00 3 l/m2 in 12 Std. -
Do, 24.05. 14:00 3 l/m2 in 6 Std. Regen
Do, 24.05. 8:00 9 l/m2 in 12 Std. Regenschauer
Do, 24.05. 2:00 0.0 l/m2 in 6 Std. -
Mi, 23.05. 20:00 1 l/m2 in 12 Std. Regen
Mi, 23.05. 14:00 0.0 l/m2 in 6 Std. -
Ortszeit Niederschlagsmenge Niederschlagsart
Fr, 25.05. 8:30 0.0 l/m2 in 1 Std. -
Fr, 25.05. 8:20 keine Meldung -
Fr, 25.05. 8:10 keine Meldung -
Fr, 25.05. 8:00 0.0 l/m2 in 1 Std. -
Fr, 25.05. 7:50 keine Meldung -
Fr, 25.05. 7:40 keine Meldung -
Fr, 25.05. 7:30 0.0 l/m2 in 1 Std. -
Fr, 25.05. 7:00 0.0 l/m2 in 1 Std. -
Fr, 25.05. 6:30 0.0 l/m2 in 1 Std. -
Fr, 25.05. 6:00 0.0 l/m2 in 1 Std. -
Fr, 25.05. 5:30 0.0 l/m2 in 1 Std. -
Ortszeit Stärke Spitze Richtung
km/h Bft. km/h Grad Sektor
Fr, 25.05. 8:00 4 1 11 90° O
Fr, 25.05. 2:00 2 1 22 40° NO
Do, 24.05. 20:00 17 3 28 90° O
Do, 24.05. 14:00 11 2 24 110° O
Do, 24.05. 8:00 4 1 22 110° O
Do, 24.05. 2:00 11 2 29 60° NO
Mi, 23.05. 20:00 14 3 58 80° O
Mi, 23.05. 14:00 9 2 19 170° S
Ortszeit Stärke Spitze Richtung
km/h Bft. km/h Grad Sektor
Fr, 25.05. 8:30 4 1 11 110° O
Fr, 25.05. 8:20 4 1 - 110° O
Fr, 25.05. 8:10 7 2 - 100° O
Fr, 25.05. 8:00 4 1 7 90° O
Fr, 25.05. 7:50 4 1 - 90° O
Fr, 25.05. 7:40 2 1 - 50° NO
Fr, 25.05. 7:30 0 0 7 - -
Fr, 25.05. 7:00 4 1 11 40° NO
Fr, 25.05. 6:30 4 1 7 50° NO
Fr, 25.05. 6:00 6 1 6 40° NO
Fr, 25.05. 5:30 2 1 6 90° O
Ortszeit Untergrenze Bedeckung Gattung
total tief tief mittel hoch
Fr, 25.05. 8:00 60 m 8/8 8/8 - - -
Fr, 25.05. 2:00 630 m 7/8 1/8 - - -
Do, 24.05. 20:00 - 0/8 0/8 - - -
Do, 24.05. 14:00 480 m 7/8 7/8 - - -
Do, 24.05. 8:00 - 8/8 - - - -
Do, 24.05. 2:00 2100 m 1/8 1/8 - - -
Mi, 23.05. 20:00 3300 m 1/8 5/8 - - -
Mi, 23.05. 14:00 5100 m 2/8 1/8 - - -
Ortszeit Bedeckungsgrad in Achtel und Wolkenuntergrenze
Fr, 25.05. 8:30 8(90m)
Fr, 25.05. 8:20 8(90m)
Fr, 25.05. 8:10 8(90m)
Fr, 25.05. 8:00 8(60m)
Fr, 25.05. 7:50 8(60m)
Fr, 25.05. 7:40 8(60m)
Fr, 25.05. 7:30 7(<30m) 8(150m)
Fr, 25.05. 7:00 7(<30m) 8(180m)
Fr, 25.05. 6:30 6(<30m) 7(270m)
Fr, 25.05. 6:00 3(30m) 7(270m)
Fr, 25.05. 5:30 1(12000m) 2(270m) 2(12000m)
Ortszeit Luftdruck NN (hPa) Tendenz (hPa in 3 Std.)
Fr, 25.05. 8:00 1019 + 0,5
Fr, 25.05. 2:00 1019 + 0,3
Do, 24.05. 20:00 1017 - 0,2
Do, 24.05. 14:00 1018 - 0,6
Do, 24.05. 8:00 1019 + 0,4
Do, 24.05. 2:00 1019 - 0,2
Mi, 23.05. 20:00 1019 + 1,0
Mi, 23.05. 14:00 1017 0,0
Ortszeit Luftdruck NN (hPa) Tendenz (hPa in 3 Std.)
Fr, 25.05. 8:30 1019 + 0,7
Fr, 25.05. 8:20 1019 keine Meldung
Fr, 25.05. 8:10 1019 keine Meldung
Fr, 25.05. 8:00 1019 + 0,5
Fr, 25.05. 7:50 1019 keine Meldung
Fr, 25.05. 7:40 1019 keine Meldung
Fr, 25.05. 7:30 1019 + 0,5
Fr, 25.05. 7:00 1019 + 0,3
Fr, 25.05. 6:30 1019 0,0
Fr, 25.05. 6:00 1019 + 0,1
Fr, 25.05. 5:30 1019 - 0,2
Ortszeit Schneehöhe (cm)
Fr, 25.05. 8:00 -
Fr, 25.05. 2:00 -
Do, 24.05. 20:00 -
Do, 24.05. 14:00 -
Do, 24.05. 8:00 -
Do, 24.05. 2:00 -
Mi, 23.05. 20:00 -
Mi, 23.05. 14:00 -
Ortszeit Schneehöhe (cm)
Fr, 25.05. 8:30 -
Fr, 25.05. 8:20 -
Fr, 25.05. 8:10 -
Fr, 25.05. 8:00 -
Fr, 25.05. 7:50 -
Fr, 25.05. 7:40 -
Fr, 25.05. 7:30 -
Fr, 25.05. 7:00 -
Fr, 25.05. 6:30 -
Fr, 25.05. 6:00 -
Fr, 25.05. 5:30 -
Link zu dieser Seite / Seite empfehlen

Das Wetter in ...